Regional Weather Roundup
Issued by NWS Burlington, VT

Home | Current Version | Previous Version | Text Only | Print | Product List | Glossary On
Versions: 1 2 3 4 5 6 7 8 9 10 11 12 13 14 15 16 17 18 19 20 21 22 23 24 25 26 27 28 29 30 31 32 33 34 35 36 37 38 39 40 41 42 43 44 45 46 47 48 49 50
000
ASUS41 KBTV 271210
RWRBTV
VERMONT REGIONAL WEATHER ROUNDUP
NATIONAL WEATHER SERVICE BURLINGTON VT
700 AM EST THU NOV 27 2014

NOTE: "FAIR" INDICATES FEW OR NO CLOUDS BELOW 12,000 FEET WITH NO
SIGNIFICANT WEATHER AND/OR OBSTRUCTIONS TO VISIBILITY.

* THESE REPORTS ARE NOT UNDER NWS QUALITY CONTROL AND/OR DO NOT
  REPORT WEATHER SUCH AS PRECIPITATION AND FOG.

VTZ001>019-271300-
_____VERMONT_____


CITY           SKY/WX    TMP DP  RH WIND       PRES   REMARKS
BURLINGTON     PTSUNNY   26  21  81 N10       29.98R WCI  16
6HR MIN TEMP:  26; 6HR MAX TEMP:  29; 6HR PCP:  0.02;

MONTPELIER     CLOUDY    24  20  84 N8        29.93R
6HR MIN TEMP:  25; 6HR MAX TEMP:  27; 6HR PCP:  0.04;

MORRISVILLE    FLURRIES  25  21  85 N5        29.94R
6HR MIN TEMP:  25; 6HR MAX TEMP:  29; 6HR PCP: TRACE;

ST. JOHNSBURY*   N/A     26  21  81 MISG      29.88R
6HR MIN TEMP:  26; 6HR MAX TEMP:  30; 6HR PCP:  0.07;

LYNDONVILLE*   FLURRIES  25  19  79 W9        29.88R
6HR MIN TEMP:  25; 6HR MAX TEMP:  28;

MIDDLEBURY*    CLOUDY    27  26  98 NW5       29.94R
6HR MIN TEMP:  27; 6HR MAX TEMP:  29;

RUTLAND*       CLOUDY    27  23  86 NW10      29.91R WCI  17
6HR MIN TEMP:  27; 6HR MAX TEMP:  27;

HIGHGATE*      CLOUDY    25  22  88 N5        29.99R
6HR MIN TEMP:  25; 6HR MAX TEMP:  28;

NEWPORT*       LGT SNOW  24  21  89 N13       29.91S WCI  12
6HR MIN TEMP:  24; 6HR MAX TEMP:  27;

BENNINGTON     CLOUDY    28  25  88 NW5       29.91R
6HR MIN TEMP:  28; 6HR MAX TEMP:  29; 6HR PCP: TRACE;


_____LAKE CHAMPLAIN_____


CITY           SKY/WX    TMP DP  RH WIND       PRES   REMARKS
COLCHESTER RF*   N/A     32  27  80 N21         N/A
DIAMOND ISL*     N/A     30  27  86 NW16        N/A  WCI  19

$$

NYZ007-026>031-035-052-083-271300-
_____NORTHERN NEW YORK_____


CITY           SKY/WX    TMP DP  RH WIND       PRES   REMARKS
SARANAC LAKE   CLOUDY    23  52 100 N5        29.90R
6HR MIN TEMP:  21; 6HR MAX TEMP:  24; 6HR PCP: TRACE;

MASSENA        CLOUDY    29  20  69 N8        30.03S
6HR MIN TEMP:  28; 6HR MAX TEMP:  30;

OGDENSBURG*    CLOUDY    28  23  80 N6        30.03R
POTSDAM*       CLOUDY    28  25  86 N5        30.01S
WATERTOWN      CLOUDY    29  19  66 N7        30.03R
6HR MIN TEMP:  29; 6HR MAX TEMP:  30;

FT DRUM        CLOUDY    25  22  89 N5        30.00R
6HR MIN TEMP:  25; 6HR MAX TEMP:  26;

ALBANY         CLOUDY    31  26  82 N6        29.97R
6HR MIN TEMP:  29; 6HR MAX TEMP:  31; 6HR PCP:  0.02;

GLENS FALLS    CLOUDY    30  24  78 N3        29.96R
6HR MIN TEMP:  30; 6HR MAX TEMP:  31; 6HR PCP: TRACE;


$$
NHZ002-005-011-271300-
_____NEW HAMPSHIRE_____


CITY           SKY/WX    TMP DP  RH WIND       PRES   REMARKS
LEBANON        CLOUDY    30  24  78 N6        29.88R
6HR MIN TEMP:  29; 6HR MAX TEMP:  31; 6HR PCP:  0.03;

KEENE            N/A    N/A N/A N/A MISG        N/A
MT WASHINGTON  BLWGSNOW  14  14 100 N37G44      N/A  VSB 1/16WCI  -9
6HR MIN TEMP:  11; 6HR MAX TEMP:  15; 6HR PCP:  0.07;

PLYMOUTH       FAIR      30  28  92 W12       29.85R
6HR MIN TEMP:  30; 6HR MAX TEMP:  32;

WHITEFIELD     CLOUDY    25  20  81 MISG      29.86R
6HR MIN TEMP:  25; 6HR MAX TEMP:  29; 6HR PCP:  0.06;


$$

_____REGIONAL QUEBEC LOCATIONS_____


CITY           SKY/WX    TMP DP  RH WIND       PRES   REMARKS
MONTREAL       CLOUDY    28  18  64 N9        30.02R
QUEBEC CITY    CLOUDY    27  14  59 W2        29.97R
SHERBROOKE     LGT SNOW  23  21  93 N5        29.92R

_____REGIONAL ONTARIO LOCATIONS_____


CITY           SKY/WX    TMP DP  RH WIND       PRES   REMARKS
OTTAWA         CLOUDY    25  18  74 N10       30.04R WCI  15

______KEY______
VSB  - VISIBILITY IN MILES
WCI  - WIND CHILL INDEX
HX   - HEAT INDEX
$$
NNNN


USA.gov is the U.S. government's official web portal to all federal, state and local government web resources and services.